[[{"header":{"parameterUnit":"m.s-1","parameterCategory":2,"la1":30.2992,"la2":30.254,"lo1":-89.0895,"lo2":-89.0443,"dy":0.0025,"dx":0.0025,"nx":19,"ny":19,"refTime":"2026-04-21T03:00:00:Z","depth":"0","parameterNumber":2,"parameterNumberName":"U-component_of_CURRENTS"},"data":[0,0,0,0.3484,0.3486,0.3584,0.3584,0.3758,0.376,0,0,0,0,0,0,0,0,0,0,0,0.3435,0.3436,0.3483,0.3486,0.3584,0.3584,0.3758,0.376,0,0,0,0,0,0,0,0,0,0,0,0.3435,0.3436,0.3437,0.3487,0.3584,0.3584,0.3757,0.3669,0,0,0,0,0,0,0,0,0,0,0.3567,0.3519,0.3436,0.3437,0.3487,0.3584,0.3584,0.3664,0.3674,0.3731,0,0.3745,0,0.3771,0.3773,0.3774,0,0,0,0.3475,0.351,0.3542,0.3437,0.3489,0.3584,0.3537,0.3669,0.3681,0.3745,0.3747,0.3754,0.3774,0.3775,0.3776,0.4079,0.408,0,0,0.347,0.3452,0.3534,0.355,0.3515,0.3534,0.354,0.3676,0.3687,0.3748,0.3758,0.3777,0.3776,0.3778,0.4077,0.4079,0,0,0,0.3462,0.3448,0.3475,0.3542,0.3564,0.3537,0.3544,0.368,0.3691,0.376,0.3779,0.3777,0.378,0.4075,0.4078,0.4153,0,0,0,0.3458,0.3444,0.3472,0.3462,0.3561,0.3618,0.3545,0.368,0.3697,0.3778,0.3777,0.3782,0.4073,0.4076,0.4147,0.4162,0,0,0,0.3431,0.3442,0.3453,0.3461,0.3511,0.3616,0.3634,0.3684,0.371,0.3774,0.3782,0.4072,0.4076,0.4141,0.4154,0.4213,0,0,0,0.3408,0.3465,0.3453,0.3543,0.351,0.3663,0.3633,0.3738,0.3801,0.3778,0.4073,0.4077,0.4139,0.4149,0.4208,0.4083,0.4096,0,0,0.3477,0.3473,0.3535,0.3528,0.367,0.3648,0.3831,0.3879,0.3887,0.4025,0.4032,0.4149,0.4154,0.4212,0.4326,0.4331,0,0,0,0.3558,0.3588,0.3639,0.3709,0.3801,0.3885,0.394,0.3992,0.41,0.3946,0.4214,0.4216,0.4249,0.4165,0.4172,0.4079,0.4097,0.4096,0.4096,0.3589,0.3653,0.3753,0.3836,0.3937,0.407,0.4159,0.4241,0.4235,0.4302,0.4326,0.4488,0.4404,0.4406,0.4316,0.4392,0.4392,0.4392,0.4393,0.3665,0.3714,0.3804,0.3912,0.4023,0.417,0.4371,0.4397,0.4534,0.4482,0.4511,0.431,0.4416,0.4318,0.4399,0.4398,0.4397,0.4396,0.4396,0.3643,0.3677,0.3738,0.3876,0.4035,0.4212,0.4389,0.4517,0.4597,0.4645,0.4534,0.4531,0.4396,0.4653,0.4653,0.4654,0.4654,0.4654,0.4655,0.3579,0.3654,0.3707,0.385,0.393,0.4115,0.4373,0.4497,0.4611,0.4613,0.4612,0.4455,0.4566,0.4501,0.4661,0.466,0.4659,0.4658,0.4658,0.3585,0.359,0.366,0.3717,0.3875,0.393,0.4203,0.4394,0.4531,0.4574,0.4461,0.4599,0.4554,0.4547,0.4483,0.4629,0.4629,0.4629,0.4629,0.3556,0.3577,0.3614,0.3658,0.3745,0.3847,0.3855,0.405,0.4276,0.4298,0.4403,0.4303,0.4308,0.4244,0.4244,0.4173,0.4236,0.4236,0.4236,0.3573,0.3575,0.3563,0.3584,0.3658,0.369,0.357,0.3556,0.3919,0.4216,0.4311,0.4328,0.4179,0.4194,0.4086,0.4093,0.3973,0,0]},{"header":{"parameterUnit":"m.s-1","parameterCategory":2,"la1":30.2992,"la2":30.254,"lo1":-89.0895,"lo2":-89.0443,"dy":0.0025,"dx":0.0025,"nx":19,"ny":19,"refTime":"2026-04-21T03:00:00:Z","depth":"0","parameterNumber":3,"parameterNumberName":"V-component_of_CURRENTS"},"data":[0,0,0,0.031,0.031,0.0281,0.028,0.0215,0.0214,0,0,0,0,0,0,0,0,0,0,0,0.0319,0.0319,0.031,0.031,0.0281,0.028,0.0215,0.0214,0,0,0,0,0,0,0,0,0,0,0,0.0319,0.0319,0.0319,0.031,0.0281,0.028,0.0215,0.0241,0,0,0,0,0,0,0,0,0,0,0.0272,0.0284,0.0319,0.0319,0.031,0.0281,0.028,0.0243,0.024,0.0223,0,0.0225,0,0.0222,0.021,0.021,0,0,0,0.0299,0.0287,0.0285,0.0319,0.0309,0.0281,0.0291,0.0241,0.0238,0.0218,0.0224,0.0222,0.0221,0.0209,0.0209,0.0223,0.0224,0,0,0.0301,0.0304,0.0288,0.0283,0.0309,0.0292,0.029,0.0239,0.0234,0.0224,0.022,0.022,0.0209,0.0209,0.0222,0.0223,0,0,0,0.0313,0.0305,0.0305,0.0285,0.0285,0.0291,0.0289,0.0236,0.0238,0.0219,0.0219,0.0209,0.0208,0.0222,0.0223,0.0385,0,0,0,0.0313,0.0313,0.0306,0.0306,0.0286,0.0263,0.0287,0.0242,0.0236,0.022,0.0209,0.0207,0.0221,0.0222,0.038,0.0492,0,0,0,0.0319,0.0313,0.0314,0.0306,0.0299,0.0264,0.0263,0.0241,0.0236,0.021,0.0207,0.0221,0.0222,0.0374,0.0481,0.059,0,0,0,0.0316,0.0357,0.0314,0.0365,0.03,0.0343,0.0263,0.0273,0.026,0.0208,0.0221,0.0223,0.0373,0.0474,0.0583,0.0678,0.0719,0,0,0.0377,0.0363,0.04,0.0363,0.044,0.0345,0.0421,0.0358,0.0273,0.0232,0.0232,0.0382,0.048,0.0588,0.0761,0.08,0,0,0,0.0428,0.0458,0.0474,0.0502,0.0501,0.0527,0.0446,0.0421,0.0385,0.0272,0.0365,0.0423,0.0486,0.0527,0.0558,0.0383,0.0229,0.0229,0.0229,0.0514,0.0534,0.0611,0.0632,0.0656,0.0646,0.0665,0.0608,0.0489,0.0492,0.0542,0.0722,0.0766,0.079,0.0609,0.0503,0.0504,0.0504,0.0505,0.0649,0.0711,0.073,0.0817,0.0833,0.0887,0.0877,0.0819,0.0823,0.068,0.0732,0.068,0.0834,0.0627,0.0515,0.0513,0.0512,0.0511,0.051,0.0722,0.076,0.0803,0.0932,0.105,0.1074,0.1248,0.115,0.1016,0.1053,0.1061,0.1058,0.0891,0.1061,0.1062,0.1063,0.1064,0.1065,0.1065,0.0787,0.0833,0.0959,0.108,0.1197,0.1376,0.1452,0.1488,0.1415,0.1281,0.128,0.094,0.0892,0.0886,0.1081,0.1078,0.1076,0.1074,0.1073,0.0926,0.0931,0.1123,0.1249,0.1537,0.1796,0.1843,0.1927,0.1871,0.1862,0.1322,0.139,0.1356,0.1328,0.1332,0.163,0.163,0.163,0.1631,0.1015,0.1034,0.1304,0.1537,0.1816,0.2012,0.2323,0.2306,0.1907,0.1637,0.145,0.1297,0.1282,0.1231,0.1206,0.12,0.1459,0.1458,0.1457,0.1141,0.12,0.142,0.1628,0.1951,0.2256,0.254,0.2554,0.1891,0.1424,0.1195,0.1202,0.094,0.0931,0.0808,0.0787,0.0761,0,0]}],[{"header":{"parameterUnit":"m.s-1","parameterCategory":2,"la1":30.2992,"la2":30.254,"lo1":-89.0895,"lo2":-89.0443,"dy":0.0025,"dx":0.0025,"nx":19,"ny":19,"refTime":"2026-04-21T03:00:00:Z","depth":"2","parameterNumber":2,"parameterNumberName":"U-component_of_CURRENTS"},"data":[0,0,0,0.3204,0.3206,0.3316,0.3316,0.3467,0.3469,0,0,0,0,0,0,0,0,0,0,0,0.3158,0.3159,0.3204,0.3207,0.3316,0.3316,0.3467,0.3469,0,0,0,0,0,0,0,0,0,0,0,0.3158,0.3159,0.316,0.3207,0.3316,0.3316,0.3467,0.338,0,0,0,0,0,0,0,0,0,0,0.3272,0.3232,0.3159,0.316,0.3208,0.3316,0.3316,0.3376,0.3385,0.3423,0,0.3441,0,0.3466,0.348,0.348,0,0,0,0.3201,0.3224,0.3255,0.316,0.3209,0.3315,0.3265,0.3381,0.3392,0.3436,0.3444,0.3449,0.3469,0.3481,0.3482,0.3696,0.3697,0,0,0.3195,0.3179,0.3247,0.3262,0.3241,0.3261,0.3268,0.3387,0.34,0.3444,0.3453,0.3471,0.3482,0.3483,0.3695,0.3697,0,0,0,0.3181,0.3175,0.3202,0.3255,0.3279,0.3265,0.3273,0.3395,0.3404,0.3455,0.3473,0.3483,0.3485,0.3694,0.3696,0.3768,0,0,0,0.3177,0.3168,0.3199,0.3191,0.3276,0.3338,0.3277,0.3396,0.341,0.3472,0.3483,0.3486,0.3693,0.3695,0.3763,0.3803,0,0,0,0.3153,0.3165,0.3178,0.319,0.3241,0.3337,0.3353,0.3399,0.3422,0.348,0.3487,0.3692,0.3695,0.3759,0.3796,0.3849,0,0,0,0.3131,0.3163,0.3178,0.3223,0.324,0.3337,0.3352,0.3434,0.3486,0.3484,0.3693,0.3696,0.3758,0.3792,0.3845,0.3718,0.3728,0,0,0.3159,0.3166,0.3193,0.3209,0.3297,0.3322,0.3457,0.3529,0.3542,0.365,0.3656,0.3765,0.3796,0.3848,0.3874,0.3879,0,0,0,0.3194,0.3211,0.3243,0.3293,0.3362,0.3467,0.3539,0.3599,0.371,0.3588,0.38,0.3818,0.3848,0.3764,0.3769,0.3708,0.3708,0.3708,0.3708,0.3188,0.3229,0.3287,0.3359,0.3441,0.3583,0.3677,0.3775,0.3787,0.3858,0.3902,0.4028,0.3941,0.3943,0.3926,0.3927,0.3927,0.3927,0.3928,0.3204,0.3229,0.3314,0.3387,0.3514,0.3644,0.3849,0.39,0.4055,0.4024,0.4048,0.3876,0.3952,0.3934,0.3933,0.3932,0.3931,0.3931,0.393,0.3169,0.3193,0.3247,0.3367,0.3526,0.3711,0.3875,0.4016,0.4124,0.4172,0.4076,0.4072,0.4053,0.4191,0.4191,0.4191,0.4192,0.4192,0.4192,0.3104,0.3167,0.3213,0.3359,0.345,0.3634,0.3898,0.4007,0.4137,0.4162,0.416,0.4117,0.4108,0.407,0.4199,0.4198,0.4197,0.4196,0.4196,0.3073,0.31,0.3149,0.3216,0.3394,0.3432,0.3717,0.389,0.4047,0.4075,0.4142,0.4141,0.4104,0.4097,0.4059,0.4178,0.4178,0.4178,0.4178,0.3038,0.3057,0.3078,0.313,0.3227,0.3334,0.3333,0.3502,0.3771,0.3846,0.3859,0.3744,0.3753,0.369,0.3692,0.3643,0.3654,0.3653,0.3652,0.3029,0.3021,0.3003,0.3036,0.3121,0.3148,0.3023,0.2969,0.323,0.3626,0.3717,0.4153,0.4018,0.4019,0.3944,0.394,0.387,0,0]},{"header":{"parameterUnit":"m.s-1","parameterCategory":2,"la1":30.2992,"la2":30.254,"lo1":-89.0895,"lo2":-89.0443,"dy":0.0025,"dx":0.0025,"nx":19,"ny":19,"refTime":"2026-04-21T03:00:00:Z","depth":"2","parameterNumber":3,"parameterNumberName":"V-component_of_CURRENTS"},"data":[0,0,0,0.0234,0.0234,0.0209,0.0209,0.0153,0.0153,0,0,0,0,0,0,0,0,0,0,0,0.0242,0.0242,0.0234,0.0234,0.0209,0.0209,0.0153,0.0153,0,0,0,0,0,0,0,0,0,0,0,0.0242,0.0242,0.0242,0.0234,0.0209,0.0209,0.0153,0.0176,0,0,0,0,0,0,0,0,0,0,0.0202,0.0212,0.0242,0.0242,0.0234,0.0209,0.0209,0.0177,0.0175,0.016,0,0.0162,0,0.016,0.0149,0.0149,0,0,0,0.0225,0.0214,0.0213,0.0242,0.0234,0.021,0.0218,0.0176,0.0173,0.0156,0.0161,0.0159,0.0159,0.0149,0.0149,0.0176,0.0176,0,0,0.0227,0.0229,0.0215,0.0212,0.0234,0.0219,0.0217,0.0174,0.017,0.0161,0.0158,0.0158,0.0149,0.0148,0.0175,0.0176,0,0,0,0.0236,0.023,0.023,0.0214,0.0213,0.0218,0.0217,0.0172,0.0174,0.0158,0.0157,0.0148,0.0148,0.0174,0.0175,0.0318,0,0,0,0.0237,0.0236,0.0231,0.0231,0.0214,0.0195,0.0215,0.0177,0.0172,0.0158,0.0148,0.0147,0.0173,0.0175,0.0312,0.0403,0,0,0,0.0242,0.0236,0.0237,0.0231,0.0225,0.0196,0.0194,0.0175,0.0172,0.0149,0.0147,0.0173,0.0174,0.0307,0.0393,0.0462,0,0,0,0.0239,0.0275,0.0237,0.0285,0.0226,0.0271,0.0195,0.0205,0.0195,0.0148,0.0174,0.0175,0.0306,0.0387,0.0456,0.0516,0.0548,0,0,0.0294,0.0281,0.0316,0.0282,0.0359,0.0273,0.0345,0.0286,0.0213,0.0182,0.0183,0.0314,0.0393,0.0461,0.061,0.064,0,0,0,0.0341,0.0369,0.0385,0.0415,0.0418,0.0441,0.0373,0.0347,0.0317,0.0215,0.0307,0.0353,0.0391,0.0414,0.0438,0.0183,0.0183,0.0183,0.0182,0.0417,0.0439,0.0515,0.0542,0.0564,0.0554,0.0564,0.0511,0.0416,0.0421,0.0463,0.0608,0.0634,0.0653,0.0439,0.0439,0.044,0.044,0.044,0.0541,0.06,0.0625,0.0706,0.0721,0.0769,0.0753,0.07,0.0695,0.0588,0.0616,0.0556,0.0687,0.0452,0.045,0.0448,0.0447,0.0446,0.0445,0.0608,0.0644,0.0687,0.0807,0.0911,0.093,0.1056,0.0976,0.0856,0.0881,0.0865,0.0862,0.0706,0.0883,0.0884,0.0884,0.0885,0.0886,0.0886,0.0658,0.0709,0.0814,0.0933,0.1034,0.1176,0.123,0.1235,0.1158,0.1049,0.1048,0.0757,0.0743,0.073,0.0897,0.0895,0.0894,0.0893,0.0892,0.0761,0.0771,0.0935,0.1043,0.1297,0.1499,0.1527,0.1546,0.1491,0.1459,0.1126,0.1116,0.1077,0.1056,0.105,0.1291,0.1291,0.1291,0.1291,0.0819,0.084,0.1059,0.1259,0.15,0.1661,0.1864,0.1808,0.1585,0.1405,0.14,0.1309,0.129,0.1255,0.1229,0.1222,0.1508,0.1508,0.1509,0.09,0.0951,0.1122,0.1312,0.1598,0.1833,0.201,0.1947,0.1602,0.1514,0.1401,0.1312,0.1157,0.1137,0.1055,0.1025,0.1003,0,0]}],[{"header":{"parameterUnit":"m.s-1","parameterCategory":2,"la1":30.2992,"la2":30.254,"lo1":-89.0895,"lo2":-89.0443,"dy":0.0025,"dx":0.0025,"nx":19,"ny":19,"refTime":"2026-04-21T03:00:00:Z","depth":"4","parameterNumber":2,"parameterNumberName":"U-component_of_CURRENTS"},"data":[0,0,0,0.2164,0.2169,0.2384,0.2385,0.257,0.2571,0,0,0,0,0,0,0,0,0,0,0,0.2095,0.2097,0.2164,0.2169,0.2384,0.2385,0.2569,0.2571,0,0,0,0,0,0,0,0,0,0,0,0.2094,0.2096,0.2098,0.217,0.2384,0.2385,0.2569,0.243,0,0,0,0,0,0,0,0,0,0,0.2232,0.219,0.2096,0.2098,0.2171,0.2384,0.2385,0.2424,0.2438,0.2446,0,0.2491,0,0.2532,0.2581,0.2582,0,0,0,0.2171,0.2179,0.2226,0.2099,0.2173,0.2383,0.2288,0.2433,0.2449,0.2464,0.2494,0.2502,0.2535,0.2582,0.2583,0.2739,0.274,0,0,0.2159,0.2142,0.2216,0.2237,0.2244,0.2281,0.2294,0.2444,0.247,0.2495,0.2507,0.2538,0.2583,0.2584,0.2739,0.2739,0,0,0,0.2124,0.2133,0.218,0.2228,0.2274,0.2287,0.2303,0.2464,0.2478,0.2509,0.254,0.2584,0.2586,0.2738,0.2739,0.2801,0,0,0,0.2117,0.2112,0.2175,0.2167,0.2271,0.2386,0.2319,0.2467,0.2486,0.2539,0.2584,0.2587,0.2737,0.2739,0.2798,0.2826,0,0,0,0.2083,0.2109,0.2136,0.2165,0.2256,0.2385,0.2409,0.2473,0.2504,0.2582,0.2588,0.2737,0.2738,0.2795,0.2822,0.2903,0,0,0,0.2052,0.2077,0.2136,0.2182,0.2254,0.2356,0.2409,0.2511,0.2578,0.2585,0.2738,0.2739,0.2794,0.2819,0.29,0.2537,0,0,0,0.2049,0.2077,0.21,0.2156,0.2233,0.2325,0.2436,0.2556,0.2599,0.2681,0.2686,0.2799,0.2821,0.2903,0.2621,0,0,0,0,0.2074,0.2098,0.213,0.2204,0.2287,0.2411,0.2523,0.2594,0.2729,0.2648,0.281,0.2822,0.2872,0.2649,0.2746,0.2745,0.2745,0.2745,0.2745,0.2038,0.2089,0.2138,0.2225,0.2309,0.2482,0.2596,0.2717,0.2746,0.2827,0.2881,0.2995,0.276,0.2888,0.2889,0.2889,0.2889,0.2889,0.2889,0.2017,0.2034,0.2146,0.2217,0.236,0.2487,0.2698,0.2785,0.2971,0.295,0.2996,0.2737,0.2896,0.2895,0.2894,0.2893,0.2892,0.2892,0.2892,0.1961,0.1973,0.2056,0.2178,0.2344,0.2528,0.2703,0.2885,0.3027,0.3106,0.2897,0.3054,0.3042,0.3149,0.3149,0.315,0.315,0.3151,0.3151,0.1854,0.1929,0.1992,0.2144,0.2249,0.244,0.2739,0.286,0.3043,0.2937,0.3146,0.3083,0.3074,0.3058,0.3159,0.3157,0.3156,0.3156,0.3155,0.1745,0.1809,0.1875,0.1969,0.2175,0.2273,0.259,0.2731,0.2846,0.2843,0.2847,0.286,0.2813,0.2812,0.2784,0.2808,0.2803,0.2799,0,0.166,0.1697,0.1769,0.1856,0.1955,0.2159,0.2227,0.2406,0.2577,0.2481,0.2852,0.2851,0.2859,0.2798,0.279,0.2751,0,0,0,0.1587,0.1626,0.1632,0.1738,0.1828,0.1982,0.2222,0.2207,0.2543,0.2546,0.2692,0.272,0.2979,0.3182,0.3141,0.3131,0.3104,0,0]},{"header":{"parameterUnit":"m.s-1","parameterCategory":2,"la1":30.2992,"la2":30.254,"lo1":-89.0895,"lo2":-89.0443,"dy":0.0025,"dx":0.0025,"nx":19,"ny":19,"refTime":"2026-04-21T03:00:00:Z","depth":"4","parameterNumber":3,"parameterNumberName":"V-component_of_CURRENTS"},"data":[0,0,0,0.0185,0.0185,0.0176,0.0176,0.0149,0.0149,0,0,0,0,0,0,0,0,0,0,0,0.0188,0.0188,0.0185,0.0185,0.0176,0.0176,0.0149,0.0149,0,0,0,0,0,0,0,0,0,0,0,0.0188,0.0188,0.0188,0.0185,0.0176,0.0176,0.0149,0.0158,0,0,0,0,0,0,0,0,0,0,0.0168,0.0173,0.0188,0.0188,0.0185,0.0176,0.0176,0.0159,0.0158,0.015,0,0.0153,0,0.0153,0.0147,0.0147,0,0,0,0.0179,0.0174,0.0175,0.0188,0.0185,0.0176,0.0179,0.0158,0.0157,0.0149,0.0153,0.0152,0.0152,0.0147,0.0147,0.0197,0.0198,0,0,0.018,0.0181,0.0176,0.0175,0.0188,0.0179,0.0178,0.0158,0.0156,0.0153,0.0152,0.0152,0.0147,0.0147,0.0196,0.0197,0,0,0,0.0185,0.0181,0.0183,0.0176,0.0177,0.0179,0.0178,0.0157,0.0159,0.0151,0.0151,0.0147,0.0146,0.0195,0.0196,0.0297,0,0,0,0.0185,0.0185,0.0184,0.0183,0.0177,0.0168,0.0178,0.016,0.0158,0.0152,0.0147,0.0146,0.0195,0.0196,0.0292,0.0348,0,0,0,0.0188,0.0185,0.0187,0.0184,0.0183,0.0169,0.0169,0.016,0.0158,0.0147,0.0146,0.0194,0.0196,0.0288,0.0341,0.0361,0,0,0,0.0185,0.0216,0.0187,0.0229,0.0183,0.0232,0.0169,0.0188,0.0187,0.0147,0.0195,0.0196,0.0287,0.0337,0.0358,0.0359,0,0,0,0.023,0.0221,0.0252,0.0227,0.0297,0.0233,0.03,0.0259,0.0209,0.0197,0.0198,0.0294,0.0341,0.0361,0.0461,0,0,0,0,0.0272,0.0296,0.0313,0.0343,0.0355,0.0375,0.0333,0.0313,0.0299,0.0217,0.0301,0.0328,0.0337,0.0327,0.0205,0.0205,0.0204,0.0204,0.0204,0.0329,0.0354,0.0419,0.0449,0.0476,0.0474,0.0479,0.0443,0.0383,0.0391,0.0415,0.0509,0.0504,0.0412,0.0412,0.0413,0.0413,0.0414,0.0414,0.0423,0.0466,0.0501,0.0573,0.0591,0.0639,0.0624,0.0584,0.0575,0.0514,0.0516,0.0441,0.0424,0.0422,0.042,0.0419,0.0418,0.0418,0.0417,0.0466,0.049,0.0538,0.064,0.0726,0.0748,0.0814,0.0768,0.0681,0.0691,0.0642,0.0571,0.0554,0.0681,0.0682,0.0682,0.0682,0.0682,0.0683,0.048,0.0532,0.061,0.0717,0.0797,0.0892,0.0925,0.0907,0.0826,0.0769,0.0719,0.0598,0.0589,0.0569,0.0688,0.0687,0.0687,0.0686,0.0686,0.0523,0.0544,0.0665,0.0749,0.0934,0.1006,0.1048,0.0997,0.0971,0.0902,0.0786,0.0779,0.0736,0.0724,0.0706,0.0871,0.0872,0.0872,0,0.0535,0.0559,0.0713,0.0854,0.1,0.1075,0.1097,0.107,0.0944,0.0931,0.0928,0.08,0.0793,0.0744,0.0733,0.0714,0,0,0,0.0558,0.0605,0.0712,0.086,0.1031,0.1076,0.1103,0.1068,0.0983,0.0947,0.0884,0.0881,0.0793,0.0705,0.0623,0.0612,0.0575,0,0]}]]